Regional Weather Roundup
Issued by NWS Lake Charles, LA

Current Version | Previous Version | Text Only | Print | Product List | Glossary On
Versions: 1 2 3 4 5 6 7 8 9 10 11 12 13 14 15 16 17 18 19 20 21 22 23 24 25 26 27 28 29 30 31 32 33 34 35 36 37 38 39 40 41 42 43 44 45 46 47 48 49 50
000
ASUS44 KLCH 190811
RWRLCH
REGIONAL WEATHER ROUNDUP
NATIONAL WEATHER SERVICE LAKE CHARLES LA
200 AM CST SUN JAN 19 2020

Note: "fair" indicates few or no clouds below 12,000 feet with no
significant weather and/or obstructions to visibility.


ACROSS SOUTHEAST TEXAS

CITY           SKY/WX    TMP DP  RH WIND       PRES   REMARKS
BEAUMONT       FAIR      55  43  63 N18G31    30.27R
BEAUMONT CITY  NOT AVBL
ORANGE         FAIR      55  43  63 N12G20    30.29S
JASPER         FAIR      50  38  62 N9G17     30.36S
$$

ACROSS CENTRAL LOUISIANA

CITY           SKY/WX    TMP DP  RH WIND       PRES   REMARKS
LEESVILLE      FAIR      49  36  60 N12       30.30S
FULLERTON      FAIR      50  38  63 VRB3      30.29S
ALEXANDRIA INT FAIR      50  36  58 N13       30.30S
ESLER FIELD    FAIR      50  41  71 VRB7      30.31R
DERIDDER       FAIR      50  36  59 N9        30.32S
OAKDALE        FAIR      52  41  66 N10G16    30.29R
OPELOUSAS      PTSUNNY   53  34  48 N14       30.28R
$$

ACROSS SOUTHWEST AND SOUTH CENTRAL LOUISIANA

CITY           SKY/WX    TMP DP  RH WIND       PRES   REMARKS
DEQUINCY       FAIR      51  40  65 N8        30.30S
SULPHUR        FAIR      55  43  62 N14G24    30.29R
LAKE CHARLES   FAIR      56  46  69 N16       30.28R
CHENNAULT INT  FAIR      55  45  68 NE15G21   30.28R
CAMERON PHI    NOT AVBL
GRAND CHENIER  NOT AVBL
JENNINGS       FAIR      55  46  71 N17G23    30.28R
LAFAYETTE      CLOUDY    58  49  72 N15       30.24R
NEW IBERIA     CLOUDY    59  54  83 N14G24    30.23R
ABBEVILLE      CLOUDY    59  50  72 N17G25    30.24R
PATTERSON      LGT RAIN  61  57  87 N10G21      N/A
SALT POINT       N/A     62  58  86 N9G16     30.20R
$$

SELECTED SITES ACROSS THE REGION

CITY           SKY/WX    TMP DP  RH WIND       PRES   REMARKS
HOUSTON BUSH   PTCLDY    51  37  58 N10       30.32S
HOUSTON HOBBY  FAIR      54  39  57 N13       30.30R
GALVESTON      MOCLDY    59  49  69 N24G33    30.28R
COLLEGE STAT   CLEAR     46  29  51 N14       30.39R
CONROE         CLEAR     49  35  58 N8        30.35R
HUNTSVILLE     CLEAR     45  32  60 N5        30.37S
LUFKIN         CLEAR     46  29  51 N13       30.38R
SHREVEPORT     CLEAR     43  26  51 N9        30.42R
MONROE         FAIR      44  25  47 N18G24    30.38R
NATCHEZ MS     FAIR      48  34  58 N13G24    30.30R
BATON ROUGE    MOCLDY    58  48  69 N12G22    30.24R
N.O. INTL ARPT CLOUDY    63  57  81 N10G18    30.18R
SLIDELL        FAIR      62  54  74 N9        30.16S
$$

MARINE REPORTS

STATION/POSITION TIME  SKY/WX   TEMP    WIND        PRES    VSBY
                                AIR SEA DIR/SP/G
                 (UTC)          (F)     (DEG/KT/KT) (MB)    (MI)
BUOY 30 S HIGH I 0750                               1025.2R
WVE H/P(F/S)=  4/ 4

SEA RIM ST PARK  0800            55      10/ 17/ 20 1024.8R
PORT ARTHUR      0724            56 63  360/ 20/ 26 1024.6
SABINE PASS N    0724            58 67   10/ 24/ 28 1026.6
TEXAS POINT      0724            57 65   10/ 22/ 28 1023.1
CALCASIEU PASS   0724            58 65   20/ 20/ 23 1022.0
LK CHARLES BEACH 0724            56 64              1024.9
MARSH ISLAND     NOT AVBL
FRESH WATER LOCK 0724            61 69  330/ 12/ 18 1022.9
AMERADA PASS     0724            61 57  340/  7/ 11 1021.8
$$



USA.gov is the U.S. government's official web portal to all federal, state and local government web resources and services.